| time (UTC) | temp F | wind direction | speed knots | gust knots | rain 1hr in | rain 24hr in | rain mn in | humidity % | barometer mb |
| 20260503051310 | 37 | 225 | 0.0 | 0.0 | 0.00 | 0.00 | 0.00 | 83 | 1016.4 |
| 20260503050311 | 38 | 225 | 0.0 | 0.0 | 0.00 | 0.00 | 0.00 | 80 | 1016.7 |
| 20260503045311 | 38 | 225 | 0.0 | 0.0 | 0.00 | 0.00 | 0.00 | 77 | 1016.6 |
| 20260503044410 | 39 | 247 | 0.0 | 0.0 | 0.00 | 0.00 | 0.00 | 76 | 1016.7 |
| 20260503043412 | 39 | 270 | 1.7 | 2.6 | 0.00 | 0.00 | 0.00 | 75 | 1016.8 |
| 20260503042510 | 40 | 247 | 0.0 | 0.9 | 0.00 | 0.00 | 0.00 | 75 | 1017.0 |
| 20260503041512 | 40 | 247 | 0.9 | 1.7 | 0.00 | 0.00 | 0.00 | 75 | 1017.0 |
| 20260503035520 | 40 | 239 | 1.7 | 4.3 | 0.00 | 0.00 | 0.00 | 73 | 1017.1 |
| 20260503034521 | 41 | 266 | 2.6 | 3.5 | 0.00 | 0.00 | 0.00 | 71 | 1017.1 |
| 20260503033522 | 41 | 247 | 1.7 | 2.6 | 0.00 | 0.00 | 0.00 | 70 | 1017.3 |
| 20260503032522 | 41 | 245 | 2.6 | 3.5 | 0.00 | 0.00 | 0.00 | 67 | 1017.2 |
| 20260503031619 | 41 | 267 | 0.0 | 2.6 | 0.00 | 0.00 | 0.00 | 65 | 1017.3 |
| 20260503030719 | 42 | 247 | 0.9 | 1.7 | 0.00 | 0.00 | 0.00 | 65 | 1017.2 |
| 20260503024720 | 42 | 247 | 1.7 | 2.6 | 0.00 | 0.00 | 0.00 | 64 | 1017.5 |
| 20260503023722 | 42 | 247 | 1.7 | 2.6 | 0.00 | 0.01 | 0.00 | 61 | 1017.5 |
| 20260503022722 | 42 | 270 | 1.7 | 2.6 | 0.00 | 0.01 | 0.00 | 63 | 1017.5 |
| 20260503021721 | 42 | 270 | 0.0 | 0.9 | 0.00 | 0.01 | 0.00 | 62 | 1017.8 |
| 20260503014819 | 42 | 270 | 4.3 | 5.2 | 0.00 | 0.01 | 0.00 | 61 | 1017.6 |
| 20260503013821 | 43 | 265 | 3.5 | 4.3 | 0.00 | 0.01 | 0.00 | 61 | 1017.6 |
| 20260503012820 | 43 | 270 | 5.2 | 6.1 | 0.00 | 0.01 | 0.00 | 61 | 1017.5 |
| 20260503012721 | 43 | 270 | 4.3 | 6.1 | 0.00 | 0.01 | 0.00 | 61 | 1017.7 |
| 20260503011721 | 43 | 270 | 2.6 | 4.3 | 0.00 | 0.01 | 0.00 | 61 | 1017.6 |
| 20260503010819 | 43 | 270 | 3.5 | 4.3 | 0.00 | 0.01 | 0.00 | 61 | 1017.5 |
| 20260503005821 | 43 | 255 | 2.6 | 3.5 | 0.00 | 0.01 | 0.00 | 59 | 1017.5 |
| 20260503004821 | 43 | 262 | 4.3 | 5.2 | 0.00 | 0.01 | 0.00 | 58 | 1017.4 |
| 20260503003820 | 43 | 254 | 3.5 | 6.1 | 0.00 | 0.01 | 0.00 | 59 | 1017.4 |
| 20260503002820 | 43 | 270 | 4.3 | 5.2 | 0.00 | 0.01 | 0.00 | 60 | 1017.3 |
| 20260503001820 | 43 | 270 | 3.5 | 5.2 | 0.00 | 0.01 | 0.00 | 59 | 1017.2 |
| 20260502234818 | 44 | 273 | 4.3 | 5.2 | 0.00 | 0.01 | 0.00 | 61 | 1017.1 |
| 20260502234721 | 44 | 270 | 4.3 | 7.0 | 0.00 | 0.01 | 0.00 | 60 | 1017.1 |
| 20260502233819 | 44 | 270 | 4.3 | 6.1 | 0.00 | 0.01 | 0.00 | 63 | 1017.0 |
| 20260502232821 | 44 | 270 | 3.5 | 4.3 | 0.00 | 0.01 | 0.00 | 61 | 1017.1 |
| 20260502230819 | 44 | 270 | 2.6 | 3.5 | 0.00 | 0.01 | 0.00 | 59 | 1017.1 |
| 20260502224919 | 44 | 281 | 5.2 | 7.0 | 0.00 | 0.01 | 0.00 | 59 | 1017.0 |
| 20260502222919 | 44 | 270 | 3.5 | 5.2 | 0.00 | 0.01 | 0.00 | 61 | 1017.0 |
| 20260502221922 | 44 | 270 | 4.3 | 6.1 | 0.00 | 0.01 | 0.00 | 60 | 1017.1 |
| 20260502221019 | 45 | 258 | 3.5 | 5.2 | 0.00 | 0.01 | 0.00 | 58 | 1017.1 |
| 20260502220023 | 45 | 287 | 3.5 | 5.2 | 0.00 | 0.01 | 0.00 | 59 | 1017.2 |
| 20260502215019 | 45 | 274 | 6.1 | 7.8 | 0.00 | 0.01 | 0.00 | 58 | 1017.1 |
| 20260502214020 | 45 | 270 | 4.3 | 5.2 | 0.00 | 0.01 | 0.00 | 60 | 1017.1 |
| 20260502213920 | 45 | 270 | 4.3 | 6.1 | 0.00 | 0.01 | 0.00 | 59 | 1017.1 |
| 20260502212921 | 46 | 296 | 0.9 | 1.7 | 0.00 | 0.01 | 0.00 | 60 | 1017.2 |
| 20260502212019 | 46 | 294 | 3.5 | 5.2 | 0.00 | 0.01 | 0.00 | 58 | 1017.0 |
| 20260502210921 | 46 | 314 | 3.5 | 6.1 | 0.00 | 0.01 | 0.00 | 58 | 1017.1 |
| 20260502205920 | 47 | 290 | 3.5 | 5.2 | 0.00 | 0.01 | 0.00 | 57 | 1017.0 |
| 20260502204920 | 47 | 283 | 2.6 | 3.5 | 0.00 | 0.01 | 0.00 | 59 | 1017.0 |
| 20260502202921 | 47 | 298 | 3.5 | 5.2 | 0.00 | 0.01 | 0.00 | 56 | 1017.1 |
| 20260502202018 | 47 | 306 | 3.5 | 7.0 | 0.00 | 0.01 | 0.00 | 57 | 1017.0 |
| 20260502201021 | 46 | 333 | 2.6 | 4.3 | 0.00 | 0.01 | 0.00 | 59 | 1017.1 |
| 20260502200119 | 46 | 312 | 1.7 | 5.2 | 0.00 | 0.01 | 0.00 | 61 | 1017.2 |
| 20260502195120 | 45 | 290 | 2.6 | 3.5 | 0.00 | 0.01 | 0.00 | 60 | 1017.2 |
| 20260502194122 | 46 | 299 | 5.2 | 11.3 | 0.00 | 0.01 | 0.00 | 60 | 1017.3 |
| 20260502191219 | 46 | 309 | 3.5 | 7.8 | 0.00 | 0.01 | 0.00 | 64 | 1017.6 |
| 20260502190221 | 46 | 312 | 3.5 | 7.8 | 0.00 | 0.01 | 0.00 | 64 | 1017.7 |
| 20260502185220 | 46 | 301 | 2.6 | 4.3 | 0.00 | 0.01 | 0.00 | 65 | 1017.7 |
| 20260502183222 | 46 | 289 | 4.3 | 7.8 | 0.00 | 0.01 | 0.00 | 66 | 1017.6 |
| 20260502182220 | 46 | 304 | 4.3 | 7.8 | 0.00 | 0.01 | 0.00 | 68 | 1017.6 |
| 20260502181221 | 46 | 300 | 4.3 | 7.0 | 0.00 | 0.01 | 0.00 | 66 | 1017.6 |
| 20260502180220 | 46 | 281 | 6.1 | 9.6 | 0.00 | 0.01 | 0.00 | 66 | 1017.5 |
| 20260502170419 | 45 | 274 | 8.7 | 13.0 | 0.00 | 0.02 | 0.00 | 69 | 1017.4 |
| 20260502160519 | 45 | 294 | 5.2 | 7.0 | 0.00 | 0.02 | 0.00 | 66 | 1017.8 |
| 20260502151519 | 44 | 297 | 5.2 | 7.8 | 0.00 | 0.02 | 0.00 | 60 | 1017.6 |
| 20260502150520 | 44 | 268 | 7.8 | 10.4 | 0.00 | 0.02 | 0.00 | 57 | 1017.6 |
| 20260502130719 | 41 | 272 | 6.1 | 11.3 | 0.00 | 0.02 | 0.00 | 74 | 1018.0 |
| 20260502123720 | 40 | 272 | 4.3 | 7.0 | 0.00 | 0.02 | 0.00 | 78 | 1017.8 |
| 20260502122720 | 40 | 270 | 6.1 | 9.6 | 0.00 | 0.02 | 0.00 | 79 | 1017.8 |
| 20260502121719 | 39 | 278 | 6.1 | 9.6 | 0.00 | 0.02 | 0.00 | 81 | 1017.8 |
| 20260502120718 | 39 | 284 | 7.0 | 9.6 | 0.00 | 0.02 | 0.00 | 83 | 1017.8 |
| 20260502115719 | 39 | 274 | 5.2 | 8.7 | 0.00 | 0.02 | 0.00 | 84 | 1017.8 |
| 20260502113720 | 37 | 277 | 4.3 | 7.0 | 0.00 | 0.02 | 0.00 | 87 | 1017.8 |
| 20260502112721 | 37 | 261 | 3.5 | 7.0 | 0.00 | 0.02 | 0.00 | 88 | 1017.9 |
| 20260502111734 | 37 | 267 | 2.6 | 6.1 | 0.00 | 0.02 | 0.00 | 89 | 1017.6 |
| 20260502105718 | 36 | 215 | 4.3 | 7.0 | 0.00 | 0.02 | 0.00 | 89 | 1017.4 |
| 20260502104719 | 36 | 259 | 3.5 | 6.1 | 0.00 | 0.02 | 0.00 | 90 | 1017.0 |
| 20260502103720 | 36 | 241 | 2.6 | 5.2 | 0.00 | 0.02 | 0.00 | 90 | 1017.0 |
| 20260502102719 | 36 | 259 | 4.3 | 8.7 | 0.00 | 0.02 | 0.00 | 90 | 1016.8 |
| 20260502102620 | 36 | 270 | 1.7 | 3.5 | 0.00 | 0.02 | 0.00 | 90 | 1016.8 |
| 20260502100619 | 35 | 246 | 1.7 | 3.5 | 0.00 | 0.02 | 0.00 | 91 | 1016.8 |
| 20260502090720 | 35 | 247 | 0.0 | 0.0 | 0.00 | 0.02 | 0.00 | 88 | 1016.4 |
| 20260502070919 | 37 | 270 | 2.6 | 3.5 | 0.00 | 0.02 | 0.00 | 85 | 1016.1 |
| 20260502065921 | 37 | 270 | 1.7 | 3.5 | 0.00 | 0.02 | 0.00 | 82 | 1016.2 |
| 20260502064919 | 38 | 270 | 1.7 | 3.5 | 0.00 | 0.02 | 0.00 | 83 | 1016.0 |
| 20260502064818 | 38 | 270 | 1.7 | 3.5 | 0.00 | 0.02 | 0.00 | 83 | 1016.0 |
| 20260502063819 | 39 | 270 | 2.6 | 4.3 | 0.00 | 0.02 | 0.00 | 81 | 1016.4 |
| 20260502062818 | 39 | 284 | 2.6 | 5.2 | 0.00 | 0.02 | 0.00 | 80 | 1016.4 |
| 20260502061819 | 39 | 276 | 3.5 | 5.2 | 0.00 | 0.02 | 0.00 | 80 | 1016.5 |
| 20260502060919 | 39 | 283 | 0.9 | 2.6 | 0.00 | 0.02 | 0.00 | 79 | 1016.4 |
| 20260502055920 | 39 | 326 | 1.7 | 6.1 | 0.00 | 0.02 | 0.00 | 79 | 1016.3 |
| 20260502054020 | 40 | 283 | 2.6 | 4.3 | 0.00 | 0.02 | 0.00 | 80 | 1016.4 |
| 20260502052021 | 40 | 292 | 1.7 | 2.6 | 0.00 | 0.02 | 0.00 | 85 | 1016.4 |